Weather Roundup
Issued by NWS Springfield, MO

Home | Current Version | Previous Version | Text Only | Print | Product List | Glossary On
Versions: 1 2 3 4 5 6 7 8 9 10 11 12 13 14 15 16 17 18 19 20 21 22 23 24 25 26 27 28 29 30 31 32 33 34 35 36 37 38 39 40 41 42 43 44 45 46 47 48 49 50
000
NZUS99 KSGF 040257
HRRSGF

HOURLY WEATHER
NATIONAL WEATHER SERVICE SPRINGFIELD MO
900 PM CST SAT DEC 03 2016

......SGF CWA......

CITY           SKY/WX    TMP DP  RH WIND       PRES   REMARKS
SPRINGFIELD    LGT RAIN  40  35  83 E12       30.12S WCI  33
JOPLIN         CLOUDY    41  38  89 E6        30.11F
WEST PLAINS    CLOUDY    37  36  96 E7        30.17F FOG     WCI  32
ROLLA          CLOUDY    41  31  67 SE10      30.18S
BRANSON        LGT RAIN  37  37 100 E14G21    30.11F FOG     WCI  29

......SURROUNDING SGF CWA......

CITY           SKY/WX    TMP DP  RH WIND       PRES   REMARKS
CHANUTE        LGT RAIN  44  40  85 E7        30.11S
PARSONS        CLOUDY    44  41  89 VRB5      30.10F
COFFEYVILLE    CLOUDY    44  42  93 E10       30.10F
EMPORIA        CLOUDY    41  38  89 CALM      30.09F
HARRISON AR    CLOUDY    38  38 100 SE10      30.10F FOG     WCI  31

......KANSAS AND MISSOURI......

CITY           SKY/WX    TMP DP  RH WIND       PRES   REMARKS
KANSAS CTY INT LGT RAIN  44  31  60 SE8       30.11F
SEDALIA        CLOUDY    44  32  62 SE9       30.17R
ST JOSEPH      LGT RAIN  41  35  79 SE3       30.12F
ST LOUIS       CLOUDY    42  32  67 E8        30.24F
WICHITA        LGT RAIN  41  41 100 E3        30.07F FOG
TOPEKA         LGT RAIN  42  37  82 NW6       30.11F
OLATHE         CLOUDY    44  33  65 SE9       30.11F

......TENNESSEE......

CITY           SKY/WX    TMP DP  RH WIND       PRES   REMARKS
MEMPHIS        NOT AVBL
NASHVILLE      LGT RAIN  41  36  82 NE5       30.27F

......ARKANSAS.......

CITY           SKY/WX    TMP DP  RH WIND       PRES   REMARKS
FAYETTEVILLE   LGT RAIN  42  42 100 E6        30.06F FOG
FT SMITH       CLOUDY    44  42  93 E12       30.07R
LITTLE ROCK    LGT RAIN  42  42 100 E17       30.12F FOG

......OKLAHOMA.......

CITY           SKY/WX    TMP DP  RH WIND       PRES   REMARKS
TULSA          DRIZZLE   45  45 100 E6        30.07F FOG
PONCA CITY     CLOUDY    44  41  89 SE9       30.07S FOG
MCALESTER      LGT RAIN  46  44  93 NE3       30.06R FOG
OKLAHOMA CITY  MOCLDY    44  43  96 E7        30.04F FOG

......IOWA............

CITY           SKY/WX    TMP DP  RH WIND       PRES   REMARKS
DES MOINES     NOT AVBL
QUAD CITIES    CLOUDY    34  26  72 S7        30.26F WCI  28

......ILLINOIS........

CITY           SKY/WX    TMP DP  RH WIND       PRES   REMARKS
QUINCY         NOT AVBL
CHICAGO        CLOUDY    31  25  78 S3        30.29F




USA.gov is the U.S. government's official web portal to all federal, state and local government web resources and services.